FW1442 Weather Reports


time (UTC)temp
F
wind
direction
speed
knots
gust
knots
rain 1hr
in
rain 24hr
in
rain mn
in
humidity
%
barometer
mb
20260505085904 81 0.0 0.0 0.00 0.00 0.00 32 1016.8
20260505084909 81 0.0 0.0 0.00 0.00 0.00 29 1017.0
20260505083905 81 0.0 0.0 0.00 0.00 0.00 29 1017.0
20260505082904 81 0.0 0.0 0.00 0.00 0.00 29 1017.1
20260505081904 81 0.0 0.0 0.00 0.00 0.00 29 1017.2
20260505080905 81 0.0 0.0 0.00 0.00 0.00 29 1017.4
20260505075906 81 0.0 0.0 0.00 0.00 0.00 29 1017.4
20260505074906 81 0.0 0.0 0.00 0.00 0.00 30 1017.4
20260505073905 81 0.0 0.0 0.00 0.00 0.00 28 1017.4
20260505072903 81 0.0 0.0 0.00 0.00 0.00 29 1017.5
20260505071904 81 0.0 0.0 0.00 0.00 0.00 29 1017.5
20260505070904 81 0.0 0.0 0.00 0.00 0.00 29 1017.5
20260505065903 81 0.0 0.0 0.00 0.00 0.00 28 1017.6
20260505065805 81 0.0 0.0 0.00 0.00 0.00 28 1017.6
20260505064804 81 0.0 0.0 0.00 0.00 0.00 28 1017.6
20260505063805 81 0.0 0.0 0.00 0.00 0.00 28 1017.6
20260505062805 80 0.0 0.0 0.00 0.00 0.00 29 1017.7
20260505061804 79 0.0 0.0 0.00 0.00 0.00 31 1018.0
20260505005904 79 0.0 0.0 0.00 0.00 0.00 30 1017.9
20260505004904 79 0.0 0.0 0.00 0.00 0.00 31 1017.9
20260505003904 79 0.0 0.0 0.00 0.00 0.00 30 1018.0
20260505002904 79 0.0 0.0 0.00 0.00 0.00 30 1018.0
20260505001904 79 0.0 0.0 0.00 0.00 0.00 30 1018.0
20260505000904 80 0.0 0.0 0.00 0.00 0.00 29 1018.0
20260504235904 80 0.0 0.0 0.00 0.00 0.00 29 1018.0
20260504234904 80 0.0 0.0 0.00 0.00 0.00 31 1018.1
20260504233905 80 0.0 0.0 0.00 0.00 0.00 29 1018.2
20260504232904 80 0.0 0.0 0.00 0.00 0.00 29 1018.3
20260504231904 80 0.0 0.0 0.00 0.00 0.00 29 1018.2
20260504230904 80 0.0 0.0 0.00 0.00 0.00 29 1018.3
20260504225904 80 0.0 0.0 0.00 0.00 0.00 29 1018.4
20260504224904 81 0.0 0.0 0.00 0.00 0.00 29 1018.4
20260504223904 81 0.0 0.0 0.00 0.00 0.00 29 1018.4
20260504222904 81 0.0 0.0 0.00 0.00 0.00 28 1018.4
20260504221904 81 0.0 0.0 0.00 0.00 0.00 28 1018.5
20260504220904 81 0.0 0.0 0.00 0.00 0.00 30 1018.4
20260504215904 81 0.0 0.0 0.00 0.00 0.00 29 1018.4
20260504214904 81 0.0 0.0 0.00 0.00 0.00 29 1018.5
20260504213904 81 0.0 0.0 0.00 0.00 0.00 28 1018.5
20260504212904 81 0.0 0.0 0.00 0.00 0.00 29 1018.5
20260504211905 81 0.0 0.0 0.00 0.00 0.00 30 1018.5
20260504210904 81 0.0 0.0 0.00 0.00 0.00 28 1018.4
20260504205904 81 0.0 0.0 0.00 0.00 0.00 29 1018.3
20260504204904 81 0.0 0.0 0.00 0.00 0.00 29 1018.3
20260504203904 81 0.0 0.0 0.00 0.00 0.00 28 1018.3
20260504202903 81 0.0 0.0 0.00 0.00 0.00 29 1018.2
20260504201904 81 0.0 0.0 0.00 0.00 0.00 29 1018.4
20260504200904 81 0.0 0.0 0.00 0.00 0.00 29 1018.3
20260504195904 81 0.0 0.0 0.00 0.00 0.00 28 1018.2
20260504194904 82 0.0 0.0 0.00 0.00 0.00 28 1018.2
20260504193904 82 0.0 0.0 0.00 0.00 0.00 28 1018.3
20260504192904 83 0.0 0.0 0.00 0.00 0.00 27 1018.4
20260504191905 82 0.0 0.0 0.00 0.00 0.00 27 1018.2
20260504190905 81 0.0 0.0 0.00 0.00 0.00 27 1018.3
20260504185905 80 0.0 0.0 0.00 0.00 0.00 27 1018.3
20260504184905 80 0.0 0.0 0.00 0.00 0.00 26 1018.3
20260504183904 80 0.0 0.0 0.00 0.00 0.00 26 1018.2
20260504182905 80 0.0 0.0 0.00 0.00 0.00 26 1018.2
20260504181904 81 0.0 0.0 0.00 0.00 0.00 25 1018.0
20260504180904 81 0.0 0.0 0.00 0.00 0.00 26 1018.0
20260504175904 81 0.0 0.0 0.00 0.00 0.00 26 1017.9
20260504174904 81 0.0 0.0 0.00 0.00 0.00 26 1017.8
20260504173904 81 0.0 0.0 0.00 0.00 0.00 27 1017.8
20260504172904 81 0.0 0.0 0.00 0.00 0.00 25 1017.7
20260504171904 81 0.0 0.0 0.00 0.00 0.00 25 1017.7
20260504170904 81 0.0 0.0 0.00 0.00 0.00 25 1017.8
20260504150904 83 0.0 0.0 0.00 0.00 0.00 21 1018.0
20260504140905 81 0.0 0.0 0.00 0.00 0.00 20 1018.5